Time,TemperatureF,DewpointF,PressureIn,WindDirection,WindDirectionDegrees,WindSpeedMPH,WindSpeedGustMPH,Humidity,HourlyPrecipIn,Conditions,Clouds,dailyrainin,SoftwareType,DateUTC
2013-02-18 00:00:00,22.1,10.7,30.24,SSE,167,0.0,12.0,61,0.00,,,0.00,VWS V14.01,2013-02-18 05:00:00,
2013-02-18 00:01:00,21.9,10.9,30.25,SSE,167,0.0,12.0,62,0.00,,,0.00,VWS V14.01,2013-02-18 05:01:00,
2013-02-18 00:02:00,21.9,10.9,30.25,SSE,167,0.0,12.0,62,0.00,,,0.00,VWS V14.01,2013-02-18 05:02:00,
2013-02-18 00:07:00,21.9,10.5,30.25,SSE,167,0.0,12.0,61,0.00,,,0.00,VWS V14.01,2013-02-18 05:07:00,
2013-02-18 00:12:00,21.9,10.5,30.25,SSE,167,0.0,12.0,61,0.00,,,0.00,VWS V14.01,2013-02-18 05:12:00,
2013-02-18 00:17:00,21.9,10.9,30.25,SSE,167,0.0,12.0,62,0.00,,,0.00,VWS V14.01,2013-02-18 05:17:00,
2013-02-18 00:22:00,21.9,10.9,30.25,SSE,167,0.0,12.0,62,0.00,,,0.00,VWS V14.01,2013-02-18 05:22:00,
2013-02-18 00:27:00,21.8,10.4,30.25,SSE,167,0.0,12.0,61,0.00,,,0.00,VWS V14.01,2013-02-18 05:27:00,
2013-02-18 00:32:00,21.8,10.8,30.25,SSE,167,0.0,12.0,62,0.00,,,0.00,VWS V14.01,2013-02-18 05:32:00,
2013-02-18 00:37:00,21.8,10.4,30.25,SSE,167,0.0,12.0,61,0.00,,,0.00,VWS V14.01,2013-02-18 05:37:00,
2013-02-18 00:42:00,21.8,11.5,30.25,SSE,167,0.0,12.0,64,0.00,,,0.00,VWS V14.01,2013-02-18 05:42:00,
2013-02-18 00:47:00,21.6,11.3,30.25,SSE,167,0.0,12.0,64,0.00,,,0.00,VWS V14.01,2013-02-18 05:47:00,
2013-02-18 00:52:00,21.4,11.5,30.25,SSE,167,0.0,12.0,65,0.00,,,0.00,VWS V14.01,2013-02-18 05:52:00,
2013-02-18 00:57:00,21.3,11.4,30.25,SSE,167,0.0,12.0,65,0.00,,,0.00,VWS V14.01,2013-02-18 05:57:00,
2013-02-18 01:02:00,21.1,11.2,30.25,SSE,167,0.0,12.0,65,0.00,,,0.00,VWS V14.01,2013-02-18 06:02:00,
2013-02-18 01:08:00,21.0,11.1,30.25,SSE,167,0.0,12.0,65,0.00,,,0.00,VWS V14.01,2013-02-18 06:08:00,
2013-02-18 01:13:00,20.8,10.9,30.25,SSE,167,0.0,12.0,65,0.00,,,0.00,VWS V14.01,2013-02-18 06:13:00,
2013-02-18 01:18:00,20.6,10.7,30.24,SSE,167,0.0,12.0,65,0.00,,,0.00,VWS V14.01,2013-02-18 06:18:00,
2013-02-18 01:23:00,20.6,11.4,30.24,SSE,167,0.0,12.0,67,0.00,,,0.00,VWS V14.01,2013-02-18 06:23:00,
2013-02-18 01:28:00,20.6,11.1,30.24,SSE,167,0.0,12.0,66,0.00,,,0.00,VWS V14.01,2013-02-18 06:28:00,
2013-02-18 01:33:00,20.5,11.0,30.24,SSE,167,0.0,12.0,66,0.00,,,0.00,VWS V14.01,2013-02-18 06:33:00,
2013-02-18 01:38:00,20.5,10.6,30.24,SSE,167,0.0,12.0,65,0.00,,,0.00,VWS V14.01,2013-02-18 06:38:00,
2013-02-18 01:43:00,20.5,10.3,30.24,SSE,167,0.0,12.0,64,0.00,,,0.00,VWS V14.01,2013-02-18 06:43:00,
2013-02-18 01:48:00,20.5,10.6,30.25,SSE,167,0.0,12.0,65,0.00,,,0.00,VWS V14.01,2013-02-18 06:48:00,
2013-02-18 01:53:00,20.5,11.6,30.25,SSE,167,0.0,12.0,68,0.00,,,0.00,VWS V14.01,2013-02-18 06:53:00,
2013-02-18 01:58:00,20.5,12.0,30.25,SSE,167,0.0,12.0,69,0.00,,,0.00,VWS V14.01,2013-02-18 06:58:00,
2013-02-18 02:03:00,20.5,12.0,30.25,SSE,167,0.0,12.0,69,0.00,,,0.00,VWS V14.01,2013-02-18 07:03:00,
2013-02-18 02:08:00,20.3,12.1,30.25,SSE,167,0.0,12.0,70,0.00,,,0.00,VWS V14.01,2013-02-18 07:08:00,
2013-02-18 02:13:00,20.3,11.8,30.25,SSE,167,0.0,12.0,69,0.00,,,0.00,VWS V14.01,2013-02-18 07:13:00,
2013-02-18 02:18:00,20.3,11.4,30.25,SSE,167,0.0,12.0,68,0.00,,,0.00,VWS V14.01,2013-02-18 07:18:00,
2013-02-18 02:23:00,20.3,12.1,30.25,SSE,167,0.0,12.0,70,0.00,,,0.00,VWS V14.01,2013-02-18 07:23:00,
2013-02-18 02:29:00,20.3,11.4,30.25,SSE,167,0.0,12.0,68,0.00,,,0.00,VWS V14.01,2013-02-18 07:29:00,
2013-02-18 02:34:00,20.3,11.1,30.24,SSE,167,0.0,12.0,67,0.00,,,0.00,VWS V14.01,2013-02-18 07:34:00,
2013-02-18 02:39:00,20.3,10.4,30.24,SSE,167,0.0,12.0,65,0.00,,,0.00,VWS V14.01,2013-02-18 07:39:00,
2013-02-18 02:44:00,20.3,11.4,30.24,SSE,167,0.0,12.0,68,0.00,,,0.00,VWS V14.01,2013-02-18 07:44:00,
2013-02-18 02:49:00,20.5,11.3,30.25,SSE,167,0.0,12.0,67,0.00,,,0.00,VWS V14.01,2013-02-18 07:49:00,
2013-02-18 02:54:00,20.5,11.3,30.25,SSE,167,0.0,12.0,67,0.00,,,0.00,VWS V14.01,2013-02-18 07:54:00,
2013-02-18 02:59:00,20.5,11.3,30.25,SSE,167,0.0,12.0,67,0.00,,,0.00,VWS V14.01,2013-02-18 07:59:00,
2013-02-18 03:04:00,20.5,10.6,30.26,SSE,167,0.0,12.0,65,0.00,,,0.00,VWS V14.01,2013-02-18 08:04:00,
2013-02-18 03:09:00,20.5,11.0,30.26,SSE,167,0.0,12.0,66,0.00,,,0.00,VWS V14.01,2013-02-18 08:09:00,
2013-02-18 03:14:00,20.3,10.8,30.26,SSE,167,0.0,12.0,66,0.00,,,0.00,VWS V14.01,2013-02-18 08:14:00,
2013-02-18 03:19:00,20.3,11.1,30.26,SSE,167,0.0,12.0,67,0.00,,,0.00,VWS V14.01,2013-02-18 08:19:00,
2013-02-18 03:24:00,20.2,11.0,30.26,SSE,167,0.0,12.0,67,0.00,,,0.00,VWS V14.01,2013-02-18 08:24:00,
2013-02-18 03:30:00,20.2,10.7,30.26,SSE,167,0.0,12.0,66,0.00,,,0.00,VWS V14.01,2013-02-18 08:30:00,
2013-02-18 03:35:00,20.2,10.3,30.26,SSE,167,0.0,12.0,65,0.00,,,0.00,VWS V14.01,2013-02-18 08:35:00,
2013-02-18 03:40:00,20.2,10.0,30.26,SSE,167,0.0,12.0,64,0.00,,,0.00,VWS V14.01,2013-02-18 08:40:00,
2013-02-18 03:45:00,20.2,10.7,30.26,SSE,167,0.0,12.0,66,0.00,,,0.00,VWS V14.01,2013-02-18 08:45:00,
2013-02-18 03:50:00,20.2,11.0,30.26,SSE,167,0.0,12.0,67,0.00,,,0.00,VWS V14.01,2013-02-18 08:50:00,
2013-02-18 03:55:00,20.2,10.3,30.26,SSE,167,0.0,12.0,65,0.00,,,0.00,VWS V14.01,2013-02-18 08:55:00,
2013-02-18 04:00:00,20.2,10.0,30.26,SSE,167,0.0,12.0,64,0.00,,,0.00,VWS V14.01,2013-02-18 09:00:00,
2013-02-18 04:05:00,20.2,11.0,30.26,SSE,167,0.0,12.0,67,0.00,,,0.00,VWS V14.01,2013-02-18 09:05:00,
2013-02-18 04:10:00,20.2,10.7,30.26,SSE,167,0.0,12.0,66,0.00,,,0.00,VWS V14.01,2013-02-18 09:10:00,
2013-02-18 04:15:00,20.3,10.4,30.26,SSE,166,0.0,12.0,65,0.00,,,0.00,VWS V14.01,2013-02-18 09:15:00,
2013-02-18 04:20:00,20.3,11.4,30.27,SSE,166,0.0,12.0,68,0.00,,,0.00,VWS V14.01,2013-02-18 09:20:00,
2013-02-18 04:26:00,20.3,11.8,30.27,SSE,166,0.0,12.0,69,0.00,,,0.00,VWS V14.01,2013-02-18 09:26:00,
2013-02-18 04:31:00,20.2,11.7,30.27,SSE,166,0.0,12.0,69,0.00,,,0.00,VWS V14.01,2013-02-18 09:31:00,
2013-02-18 04:36:00,20.2,11.7,30.27,SSE,166,0.0,12.0,69,0.00,,,0.00,VWS V14.01,2013-02-18 09:36:00,
2013-02-18 04:41:00,20.2,11.7,30.27,SSE,166,0.0,12.0,69,0.00,,,0.00,VWS V14.01,2013-02-18 09:41:00,
2013-02-18 04:46:00,20.0,10.8,30.28,SSE,166,0.0,12.0,67,0.00,,,0.00,VWS V14.01,2013-02-18 09:46:00,
2013-02-18 04:51:00,20.0,10.1,30.28,SSE,166,0.0,12.0,65,0.00,,,0.00,VWS V14.01,2013-02-18 09:51:00,
2013-02-18 04:56:00,20.2,9.6,30.28,SSE,166,0.0,12.0,63,0.00,,,0.00,VWS V14.01,2013-02-18 09:56:00,
2013-02-18 05:01:00,20.2,10.7,30.28,SSE,166,0.0,12.0,66,0.00,,,0.00,VWS V14.01,2013-02-18 10:01:00,
2013-02-18 05:06:00,20.2,10.3,30.28,SSE,166,0.0,12.0,65,0.00,,,0.00,VWS V14.01,2013-02-18 10:06:00,
2013-02-18 05:11:00,20.2,11.0,30.28,SSE,166,0.0,12.0,67,0.00,,,0.00,VWS V14.01,2013-02-18 10:11:00,
2013-02-18 05:16:00,20.2,11.0,30.28,SSE,166,0.0,12.0,67,0.00,,,0.00,VWS V14.01,2013-02-18 10:16:00,
2013-02-18 05:21:00,20.2,11.0,30.28,SSE,166,0.0,12.0,67,0.00,,,0.00,VWS V14.01,2013-02-18 10:21:00,
2013-02-18 05:27:00,20.2,10.7,30.28,SSE,166,0.0,12.0,66,0.00,,,0.00,VWS V14.01,2013-02-18 10:27:00,
2013-02-18 05:32:00,20.2,10.3,30.29,SSE,166,0.0,12.0,65,0.00,,,0.00,VWS V14.01,2013-02-18 10:32:00,
2013-02-18 05:37:00,20.2,9.6,30.29,SSE,166,0.0,12.0,63,0.00,,,0.00,VWS V14.01,2013-02-18 10:37:00,
2013-02-18 05:42:00,20.3,10.1,30.29,SSE,166,0.0,12.0,64,0.00,,,0.00,VWS V14.01,2013-02-18 10:42:00,
2013-02-18 05:47:00,20.2,10.3,30.29,SSE,166,0.0,12.0,65,0.00,,,0.00,VWS V14.01,2013-02-18 10:47:00,
2013-02-18 05:52:00,20.2,10.0,30.29,SSE,166,0.0,12.0,64,0.00,,,0.00,VWS V14.01,2013-02-18 10:52:00,
2013-02-18 05:57:00,20.3,10.4,30.29,SSE,166,0.0,12.0,65,0.00,,,0.00,VWS V14.01,2013-02-18 10:57:00,
2013-02-18 06:02:00,20.3,10.4,30.29,SSE,166,0.0,12.0,65,0.00,,,0.00,VWS V14.01,2013-02-18 11:02:00,
2013-02-18 06:07:00,20.3,9.4,30.29,SSE,166,0.0,12.0,62,0.00,,,0.00,VWS V14.01,2013-02-18 11:07:00,
2013-02-18 06:13:00,20.5,10.6,30.29,SSE,166,0.0,12.0,65,0.00,,,0.00,VWS V14.01,2013-02-18 11:13:00,
2013-02-18 06:18:00,20.5,10.3,30.30,SSE,166,0.0,12.0,64,0.00,,,0.00,VWS V14.01,2013-02-18 11:18:00,
2013-02-18 06:23:00,20.3,10.1,30.30,SSE,166,0.0,12.0,64,0.00,,,0.00,VWS V14.01,2013-02-18 11:23:00,
2013-02-18 06:28:00,20.3,11.1,30.30,SSE,166,0.0,12.0,67,0.00,,,0.00,VWS V14.01,2013-02-18 11:28:00,
2013-02-18 06:33:00,20.3,10.8,30.30,SSE,166,0.0,12.0,66,0.00,,,0.00,VWS V14.01,2013-02-18 11:33:00,
2013-02-18 06:38:00,20.3,11.4,30.30,SSE,166,0.0,12.0,68,0.00,,,0.00,VWS V14.01,2013-02-18 11:38:00,
2013-02-18 06:43:00,20.3,11.4,30.30,SSE,166,0.0,12.0,68,0.00,,,0.00,VWS V14.01,2013-02-18 11:43:00,
2013-02-18 06:49:00,20.3,11.4,30.30,SSE,166,0.0,12.0,68,0.00,,,0.00,VWS V14.01,2013-02-18 11:49:00,
2013-02-18 06:54:00,20.3,11.4,30.30,SSE,166,0.0,12.0,68,0.00,,,0.00,VWS V14.01,2013-02-18 11:54:00,
2013-02-18 06:59:00,20.5,11.6,30.30,SSE,166,0.0,12.0,68,0.00,,,0.00,VWS V14.01,2013-02-18 11:59:00,
2013-02-18 07:04:00,20.5,12.0,30.30,SSE,166,0.0,12.0,69,0.00,,,0.00,VWS V14.01,2013-02-18 12:04:00,
2013-02-18 07:09:00,20.3,12.1,30.30,SSE,166,0.0,12.0,70,0.00,,,0.00,VWS V14.01,2013-02-18 12:09:00,
2013-02-18 07:14:00,20.3,12.1,30.30,SSE,166,0.0,12.0,70,0.00,,,0.00,VWS V14.01,2013-02-18 12:14:00,
2013-02-18 07:19:00,20.3,12.1,30.30,SSE,166,0.0,12.0,70,0.00,,,0.00,VWS V14.01,2013-02-18 12:19:00,
2013-02-18 07:24:00,20.5,12.6,30.30,SSE,166,0.0,12.0,71,0.00,,,0.00,VWS V14.01,2013-02-18 12:24:00,
2013-02-18 07:29:00,20.5,12.3,30.30,SSE,166,0.0,12.0,70,0.00,,,0.00,VWS V14.01,2013-02-18 12:29:00,
2013-02-18 07:34:00,20.5,12.0,30.30,SSE,166,0.0,12.0,69,0.00,,,0.00,VWS V14.01,2013-02-18 12:34:00,
2013-02-18 07:39:00,20.5,12.0,30.30,SSE,166,0.0,12.0,69,0.00,,,0.00,VWS V14.01,2013-02-18 12:39:00,
2013-02-18 07:44:00,20.6,12.1,30.30,SSE,166,0.0,12.0,69,0.00,,,0.00,VWS V14.01,2013-02-18 12:44:00,
2013-02-18 07:50:00,20.8,12.9,30.30,SSE,166,0.0,12.0,71,0.00,,,0.00,VWS V14.01,2013-02-18 12:50:00,
2013-02-18 07:55:00,21.0,13.1,30.30,SSE,166,0.0,12.0,71,0.00,,,0.00,VWS V14.01,2013-02-18 12:55:00,
2013-02-18 08:00:00,21.1,13.2,30.30,SSE,166,0.0,12.0,71,0.00,,,0.00,VWS V14.01,2013-02-18 13:00:00,
2013-02-18 08:05:00,21.4,13.5,30.30,SSE,166,1.0,12.0,71,0.00,,,0.00,VWS V14.01,2013-02-18 13:05:00,
2013-02-18 08:10:00,21.8,13.5,30.30,SSE,166,0.0,12.0,70,0.00,,,0.00,VWS V14.01,2013-02-18 13:10:00,
2013-02-18 08:15:00,22.1,14.1,30.30,SSE,166,0.0,12.0,71,0.00,,,0.00,VWS V14.01,2013-02-18 13:15:00,
2013-02-18 08:20:00,22.4,14.1,30.30,SSE,166,0.0,12.0,70,0.00,,,0.00,VWS V14.01,2013-02-18 13:20:00,
2013-02-18 08:25:00,22.9,14.3,30.30,SSE,166,0.0,12.0,69,0.00,,,0.00,VWS V14.01,2013-02-18 13:25:00,
2013-02-18 08:30:00,23.3,14.3,30.30,SSE,166,0.0,12.0,68,0.00,,,0.00,VWS V14.01,2013-02-18 13:30:00,
2013-02-18 08:35:00,23.8,13.1,30.30,SSE,166,0.0,12.0,63,0.00,,,0.00,VWS V14.01,2013-02-18 13:35:00,
2013-02-18 08:40:00,24.5,13.4,30.30,SSE,166,0.0,12.0,62,0.00,,,0.00,VWS V14.01,2013-02-18 13:40:00,
2013-02-18 08:46:00,25.3,14.5,30.30,SSE,166,0.0,12.0,63,0.00,,,0.00,VWS V14.01,2013-02-18 13:46:00,
2013-02-18 08:51:00,25.7,13.8,30.30,SSE,166,0.0,12.0,60,0.00,,,0.00,VWS V14.01,2013-02-18 13:51:00,
2013-02-18 08:56:00,26.1,13.8,30.30,SSE,166,0.0,12.0,59,0.00,,,0.00,VWS V14.01,2013-02-18 13:56:00,
2013-02-18 09:01:00,26.6,13.4,30.29,SSE,166,0.0,12.0,57,0.00,,,0.00,VWS V14.01,2013-02-18 14:01:00,
2013-02-18 09:06:00,27.2,13.2,30.29,South,171,0.0,12.0,55,0.00,,,0.00,VWS V14.01,2013-02-18 14:06:00,
2013-02-18 09:11:00,27.8,13.8,30.29,South,171,0.0,12.0,55,0.00,,,0.00,VWS V14.01,2013-02-18 14:11:00,
2013-02-18 09:16:00,28.2,13.7,30.30,South,171,0.0,12.0,54,0.00,,,0.00,VWS V14.01,2013-02-18 14:16:00,
2013-02-18 09:21:00,28.7,14.2,30.30,SW,219,3.0,12.0,54,0.00,,,0.00,VWS V14.01,2013-02-18 14:21:00,
2013-02-18 09:26:00,29.1,13.7,30.30,SW,219,0.0,12.0,52,0.00,,,0.00,VWS V14.01,2013-02-18 14:26:00,
2013-02-18 09:32:00,29.5,13.6,30.30,SW,219,1.0,12.0,51,0.00,,,0.00,VWS V14.01,2013-02-18 14:32:00,
2013-02-18 09:37:00,29.8,13.9,30.30,WSW,246,0.0,12.0,51,0.00,,,0.00,VWS V14.01,2013-02-18 14:37:00,
2013-02-18 09:42:00,30.1,13.7,30.30,WSW,246,0.0,12.0,50,0.00,,,0.00,VWS V14.01,2013-02-18 14:42:00,
2013-02-18 09:47:00,30.4,14.0,30.30,WSW,246,2.0,12.0,50,0.00,,,0.00,VWS V14.01,2013-02-18 14:47:00,
2013-02-18 09:52:00,30.7,14.3,30.30,WSW,246,0.0,12.0,50,0.00,,,0.00,VWS V14.01,2013-02-18 14:52:00,
2013-02-18 09:57:00,31.0,14.6,30.30,WSW,246,2.0,12.0,50,0.00,,,0.00,VWS V14.01,2013-02-18 14:57:00,
2013-02-18 10:02:00,31.3,14.4,30.30,WSW,246,2.0,12.0,49,0.00,,,0.00,VWS V14.01,2013-02-18 15:02:00,
2013-02-18 10:07:00,31.8,14.8,30.30,WSW,248,3.0,12.0,49,0.00,,,0.00,VWS V14.01,2013-02-18 15:07:00,
2013-02-18 10:12:00,32.2,14.7,30.30,WSW,249,1.0,12.0,48,0.00,,,0.00,VWS V14.01,2013-02-18 15:12:00,
2013-02-18 10:17:00,32.9,14.9,30.30,WSW,250,3.0,12.0,47,0.00,,,0.00,VWS V14.01,2013-02-18 15:17:00,
2013-02-18 10:22:00,33.5,15.4,30.30,WSW,249,1.0,12.0,47,0.00,,,0.00,VWS V14.01,2013-02-18 15:22:00,
2013-02-18 10:28:00,34.3,15.7,30.30,WSW,248,0.0,12.0,46,0.00,,,0.00,VWS V14.01,2013-02-18 15:28:00,
2013-02-18 10:33:00,34.9,16.2,30.29,WSW,249,0.0,12.0,46,0.00,,,0.00,VWS V14.01,2013-02-18 15:33:00,
2013-02-18 10:38:00,35.3,16.6,30.29,WSW,250,2.0,12.0,46,0.00,,,0.00,VWS V14.01,2013-02-18 15:38:00,
2013-02-18 10:43:00,35.8,16.5,30.29,WSW,250,2.0,12.0,45,0.00,,,0.00,VWS V14.01,2013-02-18 15:43:00,
2013-02-18 10:48:00,36.3,16.5,30.28,WSW,250,2.0,12.0,44,0.00,,,0.00,VWS V14.01,2013-02-18 15:48:00,
2013-02-18 10:53:00,37.2,17.3,30.28,West,278,1.0,12.0,44,0.00,,,0.00,VWS V14.01,2013-02-18 15:53:00,
2013-02-18 10:58:00,38.2,17.7,30.28,WSW,246,2.0,12.0,43,0.00,,,0.00,VWS V14.01,2013-02-18 15:58:00,
2013-02-18 11:03:00,39.2,17.5,30.27,WSW,253,0.0,12.0,41,0.00,,,0.00,VWS V14.01,2013-02-18 16:03:00,
2013-02-18 11:08:00,40.1,17.1,30.27,WSW,254,0.0,12.0,39,0.00,,,0.00,VWS V14.01,2013-02-18 16:08:00,
2013-02-18 11:14:00,40.9,16.6,30.27,WSW,254,0.0,12.0,37,0.00,,,0.00,VWS V14.01,2013-02-18 16:14:00,
2013-02-18 11:19:00,41.9,16.9,30.27,West,267,4.0,12.0,36,0.00,,,0.00,VWS V14.01,2013-02-18 16:19:00,
2013-02-18 11:24:00,42.3,15.9,30.27,West,265,0.0,12.0,34,0.00,,,0.00,VWS V14.01,2013-02-18 16:24:00,
2013-02-18 11:29:00,42.6,16.9,30.27,East,87,0.0,12.0,35,0.00,,,0.00,VWS V14.01,2013-02-18 16:29:00,
2013-02-18 11:34:00,43.1,17.3,30.26,West,263,3.0,12.0,35,0.00,,,0.00,VWS V14.01,2013-02-18 16:34:00,
2013-02-18 11:39:00,43.1,16.7,30.26,South,187,1.0,12.0,34,0.00,,,0.00,VWS V14.01,2013-02-18 16:39:00,
2013-02-18 11:45:00,42.9,17.1,30.26,SSW,202,1.0,12.0,35,0.00,,,0.00,VWS V14.01,2013-02-18 16:45:00,
2013-02-18 11:50:00,43.6,17.1,30.26,WNW,293,0.0,12.0,34,0.00,,,0.00,VWS V14.01,2013-02-18 16:50:00,
2013-02-18 11:55:00,44.3,17.0,30.26,SSW,196,1.0,12.0,33,0.00,,,0.00,VWS V14.01,2013-02-18 16:55:00,
2013-02-18 12:01:00,45.2,17.8,30.25,WSW,255,1.0,12.0,33,0.00,,,0.00,VWS V14.01,2013-02-18 17:01:00,
2013-02-18 12:06:00,45.5,18.1,30.25,NW,318,2.0,12.0,33,0.00,,,0.00,VWS V14.01,2013-02-18 17:06:00,
2013-02-18 12:11:00,46.0,18.5,30.25,SW,234,0.0,12.0,33,0.00,,,0.00,VWS V14.01,2013-02-18 17:11:00,
2013-02-18 12:16:00,46.4,18.9,30.24,ENE,64,3.0,12.0,33,0.00,,,0.00,VWS V14.01,2013-02-18 17:16:00,
2013-02-18 12:21:00,46.4,18.9,30.24,NNW,348,0.0,12.0,33,0.00,,,0.00,VWS V14.01,2013-02-18 17:21:00,
2013-02-18 12:26:00,46.7,19.1,30.24,SSE,150,1.0,12.0,33,0.00,,,0.00,VWS V14.01,2013-02-18 17:26:00,
2013-02-18 12:31:00,47.3,19.0,30.23,WNW,290,0.0,12.0,32,0.00,,,0.00,VWS V14.01,2013-02-18 17:31:00,
2013-02-18 12:37:00,47.9,19.5,30.23,West,261,1.0,12.0,32,0.00,,,0.00,VWS V14.01,2013-02-18 17:37:00,
2013-02-18 12:42:00,48.5,20.0,30.23,WSW,257,0.0,12.0,32,0.00,,,0.00,VWS V14.01,2013-02-18 17:42:00,
2013-02-18 12:47:00,48.9,19.6,30.22,NE,44,2.0,12.0,31,0.00,,,0.00,VWS V14.01,2013-02-18 17:47:00,
2013-02-18 12:52:00,49.2,19.9,30.22,SW,220,3.0,12.0,31,0.00,,,0.00,VWS V14.01,2013-02-18 17:52:00,
2013-02-18 12:57:00,49.6,20.2,30.22,NW,311,1.0,12.0,31,0.00,,,0.00,VWS V14.01,2013-02-18 17:57:00,
2013-02-18 13:02:00,50.1,19.9,30.20,WNW,302,2.0,12.0,30,0.00,,,0.00,VWS V14.01,2013-02-18 18:02:00,
2013-02-18 13:07:00,50.5,19.5,30.20,NW,317,3.0,12.0,29,0.00,,,0.00,VWS V14.01,2013-02-18 18:07:00,
2013-02-18 13:13:00,50.8,19.7,30.20,NW,316,2.0,12.0,29,0.00,,,0.00,VWS V14.01,2013-02-18 18:13:00,
2013-02-18 13:18:00,51.4,21.0,30.19,NNW,342,2.0,12.0,30,0.00,,,0.00,VWS V14.01,2013-02-18 18:18:00,
2013-02-18 13:23:00,51.9,22.2,30.19,NNW,330,2.0,12.0,31,0.00,,,0.00,VWS V14.01,2013-02-18 18:23:00,
2013-02-18 13:28:00,52.5,20.4,30.19,WNW,293,2.0,12.0,28,0.00,,,0.00,VWS V14.01,2013-02-18 18:28:00,
2013-02-18 13:33:00,52.3,21.0,30.18,West,280,5.0,12.0,29,0.00,,,0.00,VWS V14.01,2013-02-18 18:33:00,
2013-02-18 13:39:00,51.7,22.8,30.18,WNW,294,2.0,12.0,32,0.00,,,0.00,VWS V14.01,2013-02-18 18:39:00,
2013-02-18 13:44:00,51.9,22.2,30.18,West,279,1.0,12.0,31,0.00,,,0.00,VWS V14.01,2013-02-18 18:44:00,
2013-02-18 13:49:00,52.3,21.8,30.17,West,277,4.0,12.0,30,0.00,,,0.00,VWS V14.01,2013-02-18 18:49:00,
2013-02-18 13:54:00,51.4,21.0,30.17,NW,325,3.0,12.0,30,0.00,,,0.00,VWS V14.01,2013-02-18 18:54:00,
2013-02-18 13:59:00,51.6,21.2,30.17,West,269,6.0,12.0,30,0.00,,,0.00,VWS V14.01,2013-02-18 18:59:00,
2013-02-18 14:04:00,51.1,21.5,30.17,WSW,240,3.0,12.0,31,0.00,,,0.00,VWS V14.01,2013-02-18 19:04:00,
2013-02-18 14:09:00,51.1,22.3,30.17,WNW,288,4.0,12.0,32,0.00,,,0.00,VWS V14.01,2013-02-18 19:09:00,
2013-02-18 14:15:00,51.9,23.0,30.17,WNW,290,2.0,12.0,32,0.00,,,0.00,VWS V14.01,2013-02-18 19:15:00,
2013-02-18 14:20:00,52.9,23.1,30.15,WNW,294,2.0,12.0,31,0.00,,,0.00,VWS V14.01,2013-02-18 19:20:00,
2013-02-18 14:25:00,53.1,23.3,30.15,West,273,1.0,12.0,31,0.00,,,0.00,VWS V14.01,2013-02-18 19:25:00,
2013-02-18 14:30:00,53.1,26.2,30.15,NW,309,0.0,12.0,35,0.00,,,0.00,VWS V14.01,2013-02-18 19:30:00,
2013-02-18 14:36:00,53.8,24.6,30.13,WSW,256,4.0,12.0,32,0.00,,,0.00,VWS V14.01,2013-02-18 19:36:00,
2013-02-18 14:41:00,54.1,25.6,30.13,West,277,3.0,12.0,33,0.00,,,0.00,VWS V14.01,2013-02-18 19:41:00,
2013-02-18 14:46:00,54.1,24.9,30.13,WSW,255,4.0,12.0,32,0.00,,,0.00,VWS V14.01,2013-02-18 19:46:00,
2013-02-18 14:51:00,53.2,25.6,30.13,ENE,77,1.0,12.0,34,0.00,,,0.00,VWS V14.01,2013-02-18 19:51:00,
2013-02-18 14:56:00,53.5,25.8,30.13,WNW,293,2.0,12.0,34,0.00,,,0.00,VWS V14.01,2013-02-18 19:56:00,
2013-02-18 15:02:00,54.1,26.4,30.13,West,280,4.0,12.0,34,0.00,,,0.00,VWS V14.01,2013-02-18 20:02:00,
2013-02-18 15:07:00,54.4,25.9,30.13,SE,136,0.0,12.0,33,0.00,,,0.00,VWS V14.01,2013-02-18 20:07:00,
2013-02-18 15:12:00,54.5,26.7,30.13,WSW,258,3.0,12.0,34,0.00,,,0.00,VWS V14.01,2013-02-18 20:12:00,
2013-02-18 15:17:00,54.4,26.6,30.12,West,278,3.0,12.0,34,0.00,,,0.00,VWS V14.01,2013-02-18 20:17:00,
2013-02-18 15:22:00,54.4,27.3,30.12,WNW,291,1.0,12.0,35,0.00,,,0.00,VWS V14.01,2013-02-18 20:22:00,
2013-02-18 15:27:00,54.7,27.6,30.12,WNW,290,4.0,12.0,35,0.00,,,0.00,VWS V14.01,2013-02-18 20:27:00,
2013-02-18 15:32:00,54.7,26.9,30.12,SW,225,2.0,12.0,34,0.00,,,0.00,VWS V14.01,2013-02-18 20:32:00,
2013-02-18 15:37:00,54.1,26.4,30.12,ESE,108,1.0,12.0,34,0.00,,,0.00,VWS V14.01,2013-02-18 20:37:00,
2013-02-18 15:42:00,53.6,26.6,30.12,WSW,257,1.0,12.0,35,0.00,,,0.00,VWS V14.01,2013-02-18 20:42:00,
2013-02-18 15:47:00,54.5,26.0,30.11,WSW,249,1.0,12.0,33,0.00,,,0.00,VWS V14.01,2013-02-18 20:47:00,
2013-02-18 15:52:00,55.1,26.5,30.11,WNW,290,2.0,12.0,33,0.00,,,0.00,VWS V14.01,2013-02-18 20:52:00,
2013-02-18 15:58:00,55.1,26.5,30.11,NW,307,1.0,12.0,33,0.00,,,0.00,VWS V14.01,2013-02-18 20:58:00,
2013-02-18 16:03:00,55.3,26.7,30.11,WSW,258,0.0,12.0,33,0.00,,,0.00,VWS V14.01,2013-02-18 21:03:00,
2013-02-18 16:08:00,55.7,27.1,30.11,WNW,298,0.0,12.0,33,0.00,,,0.00,VWS V14.01,2013-02-18 21:08:00,
2013-02-18 16:13:00,55.4,25.3,30.11,West,274,1.0,12.0,31,0.00,,,0.00,VWS V14.01,2013-02-18 21:13:00,
2013-02-18 16:18:00,55.1,25.8,30.11,WSW,240,2.0,12.0,32,0.00,,,0.00,VWS V14.01,2013-02-18 21:18:00,
2013-02-18 16:23:00,54.5,26.7,30.11,SE,146,1.0,12.0,34,0.00,,,0.00,VWS V14.01,2013-02-18 21:23:00,
2013-02-18 16:29:00,54.2,26.5,30.11,NW,312,0.0,12.0,34,0.00,,,0.00,VWS V14.01,2013-02-18 21:29:00,
2013-02-18 16:34:00,54.4,27.3,30.11,ENE,66,0.0,12.0,35,0.00,,,0.00,VWS V14.01,2013-02-18 21:34:00,
2013-02-18 16:39:00,54.7,26.2,30.11,SSW,200,2.0,12.0,33,0.00,,,0.00,VWS V14.01,2013-02-18 21:39:00,
2013-02-18 16:44:00,55.0,25.7,30.11,West,275,2.0,12.0,32,0.00,,,0.00,VWS V14.01,2013-02-18 21:44:00,
2013-02-18 16:50:00,54.8,26.3,30.10,West,269,6.0,12.0,33,0.00,,,0.00,VWS V14.01,2013-02-18 21:50:00,
2013-02-18 16:55:00,54.4,26.6,30.10,WSW,256,2.0,12.0,34,0.00,,,0.00,VWS V14.01,2013-02-18 21:55:00,
2013-02-18 17:00:00,54.2,26.5,30.10,West,269,1.0,12.0,34,0.00,,,0.00,VWS V14.01,2013-02-18 22:00:00,
2013-02-18 17:05:00,53.9,27.6,30.10,West,271,0.0,12.0,36,0.00,,,0.00,VWS V14.01,2013-02-18 22:05:00,
2013-02-18 17:10:00,53.6,26.6,30.10,WSW,246,1.0,12.0,35,0.00,,,0.00,VWS V14.01,2013-02-18 22:10:00,
2013-02-18 17:15:00,53.5,26.5,30.10,West,279,2.0,12.0,35,0.00,,,0.00,VWS V14.01,2013-02-18 22:15:00,
2013-02-18 17:20:00,53.2,27.6,30.09,West,261,1.0,12.0,37,0.00,,,0.00,VWS V14.01,2013-02-18 22:20:00,
2013-02-18 17:25:00,52.8,27.9,30.09,WNW,297,0.0,12.0,38,0.00,,,0.00,VWS V14.01,2013-02-18 22:25:00,
2013-02-18 17:31:00,52.6,27.7,30.09,West,275,0.0,12.0,38,0.00,,,0.00,VWS V14.01,2013-02-18 22:31:00,
2013-02-18 17:36:00,52.3,28.7,30.09,West,275,0.0,12.0,40,0.00,,,0.00,VWS V14.01,2013-02-18 22:36:00,
2013-02-18 17:41:00,51.9,29.5,30.09,West,275,0.0,12.0,42,0.00,,,0.00,VWS V14.01,2013-02-18 22:41:00,
2013-02-18 17:47:00,51.3,29.6,30.09,West,275,0.0,12.0,43,0.00,,,0.00,VWS V14.01,2013-02-18 22:47:00,
2013-02-18 17:52:00,50.8,29.1,30.09,West,275,0.0,12.0,43,0.00,,,0.00,VWS V14.01,2013-02-18 22:52:00,
2013-02-18 17:57:00,49.8,29.3,30.09,West,275,0.0,12.0,45,0.00,,,0.00,VWS V14.01,2013-02-18 22:57:00,
2013-02-18 18:03:00,48.9,28.5,30.09,West,275,0.0,12.0,45,0.00,,,0.00,VWS V14.01,2013-02-18 23:03:00,
2013-02-18 18:09:00,48.2,28.4,30.09,West,275,0.0,12.0,46,0.00,,,0.00,VWS V14.01,2013-02-18 23:09:00,
2013-02-18 18:14:00,47.3,29.6,30.09,West,275,0.0,12.0,50,0.00,,,0.00,VWS V14.01,2013-02-18 23:14:00,
2013-02-18 18:19:00,46.4,28.8,30.08,West,275,0.0,12.0,50,0.00,,,0.00,VWS V14.01,2013-02-18 23:19:00,
2013-02-18 18:24:00,45.8,30.1,30.08,West,276,0.0,12.0,54,0.00,,,0.00,VWS V14.01,2013-02-18 23:24:00,
2013-02-18 18:29:00,45.1,29.0,30.08,West,276,1.0,12.0,53,0.00,,,0.00,VWS V14.01,2013-02-18 23:29:00,
2013-02-18 18:34:00,44.8,28.3,30.08,NNW,348,1.0,12.0,52,0.00,,,0.00,VWS V14.01,2013-02-18 23:34:00,
2013-02-18 18:40:00,44.8,28.3,30.08,NNW,348,0.0,12.0,52,0.00,,,0.00,VWS V14.01,2013-02-18 23:40:00,
2013-02-18 18:45:00,44.9,27.4,30.08,NW,312,0.0,12.0,50,0.00,,,0.00,VWS V14.01,2013-02-18 23:45:00,
2013-02-18 18:50:00,45.5,25.9,30.08,SW,234,2.0,12.0,46,0.00,,,0.00,VWS V14.01,2013-02-18 23:50:00,
2013-02-18 18:55:00,46.2,26.0,30.08,WNW,289,5.0,12.0,45,0.00,,,0.00,VWS V14.01,2013-02-18 23:55:00,
2013-02-18 19:00:00,46.4,25.7,30.08,NNW,332,0.0,12.0,44,0.00,,,0.00,VWS V14.01,2013-02-19 00:00:00,
2013-02-18 19:05:00,46.2,25.0,30.08,East,86,0.0,12.0,43,0.00,,,0.00,VWS V14.01,2013-02-19 00:05:00,
2013-02-18 19:11:00,46.1,26.5,30.08,WNW,300,0.0,12.0,46,0.00,,,0.00,VWS V14.01,2013-02-19 00:11:00,
2013-02-18 19:16:00,46.0,24.8,30.08,NNW,329,3.0,12.0,43,0.00,,,0.00,VWS V14.01,2013-02-19 00:16:00,
2013-02-18 19:21:00,46.0,23.0,30.08,NW,313,2.0,12.0,40,0.00,,,0.00,VWS V14.01,2013-02-19 00:21:00,
2013-02-18 19:26:00,45.7,25.0,30.08,West,273,2.0,12.0,44,0.00,,,0.00,VWS V14.01,2013-02-19 00:26:00,
2013-02-18 19:31:00,45.7,22.8,30.08,NW,323,0.0,12.0,40,0.00,,,0.00,VWS V14.01,2013-02-19 00:31:00,
2013-02-18 19:37:00,45.4,22.5,30.08,WSW,252,0.0,12.0,40,0.00,,,0.00,VWS V14.01,2013-02-19 00:37:00,
2013-02-18 19:42:00,44.8,23.7,30.08,NNW,335,1.0,12.0,43,0.00,,,0.00,VWS V14.01,2013-02-19 00:42:00,
2013-02-18 19:47:00,44.5,22.3,30.07,NW,313,1.0,12.0,41,0.00,,,0.00,VWS V14.01,2013-02-19 00:47:00,
2013-02-18 19:52:00,44.9,22.1,30.07,WSW,254,5.0,12.0,40,0.00,,,0.00,VWS V14.01,2013-02-19 00:52:00,
2013-02-18 19:57:00,45.1,21.6,30.07,South,170,0.0,12.0,39,0.00,,,0.00,VWS V14.01,2013-02-19 00:57:00,
2013-02-18 20:03:00,45.4,23.1,30.07,ESE,123,2.0,12.0,41,0.00,,,0.00,VWS V14.01,2013-02-19 01:03:00,
2013-02-18 20:08:00,45.5,22.0,30.07,NW,319,0.0,12.0,39,0.00,,,0.00,VWS V14.01,2013-02-19 01:08:00,
2013-02-18 20:13:00,45.5,22.0,30.07,NNE,13,0.0,12.0,39,0.00,,,0.00,VWS V14.01,2013-02-19 01:13:00,
2013-02-18 20:18:00,45.5,22.0,30.05,NNW,330,2.0,12.0,39,0.00,,,0.00,VWS V14.01,2013-02-19 01:18:00,
2013-02-18 20:24:00,45.2,23.5,30.05,West,281,0.0,12.0,42,0.00,,,0.00,VWS V14.01,2013-02-19 01:24:00,
2013-02-18 20:29:00,45.1,21.6,30.05,NW,306,1.0,12.0,39,0.00,,,0.00,VWS V14.01,2013-02-19 01:29:00,
2013-02-18 20:34:00,45.1,21.6,30.05,WSW,257,1.0,12.0,39,0.00,,,0.00,VWS V14.01,2013-02-19 01:34:00,
2013-02-18 20:39:00,44.9,23.8,30.05,West,261,0.0,12.0,43,0.00,,,0.00,VWS V14.01,2013-02-19 01:39:00,
2013-02-18 20:44:00,44.5,22.3,30.05,NNW,334,1.0,12.0,41,0.00,,,0.00,VWS V14.01,2013-02-19 01:44:00,
2013-02-18 20:50:00,44.3,23.2,30.05,WNW,288,0.0,12.0,43,0.00,,,0.00,VWS V14.01,2013-02-19 01:50:00,
2013-02-18 20:55:00,44.2,22.0,30.05,NW,320,1.0,12.0,41,0.00,,,0.00,VWS V14.01,2013-02-19 01:55:00,
2013-02-18 21:00:00,44.3,22.7,30.05,South,190,0.0,12.0,42,0.00,,,0.00,VWS V14.01,2013-02-19 02:00:00,
2013-02-18 21:05:00,44.2,22.6,30.05,WNW,299,3.0,12.0,42,0.00,,,0.00,VWS V14.01,2013-02-19 02:05:00,
2013-02-18 21:11:00,43.5,22.5,30.05,West,265,1.0,12.0,43,0.00,,,0.00,VWS V14.01,2013-02-19 02:11:00,
2013-02-18 21:16:00,42.9,23.0,30.03,NW,325,0.0,12.0,45,0.00,,,0.00,VWS V14.01,2013-02-19 02:16:00,
2013-02-18 21:21:00,42.2,23.4,30.03,ESE,105,2.0,12.0,47,0.00,,,0.00,VWS V14.01,2013-02-19 02:21:00,
2013-02-18 21:27:00,42.2,22.9,30.03,WNW,286,3.0,12.0,46,0.00,,,0.00,VWS V14.01,2013-02-19 02:27:00,
2013-02-18 21:32:00,42.5,23.2,30.03,West,277,0.0,12.0,46,0.00,,,0.00,VWS V14.01,2013-02-19 02:32:00,
2013-02-18 21:37:00,42.8,22.4,30.03,West,277,2.0,12.0,44,0.00,,,0.00,VWS V14.01,2013-02-19 02:37:00,
2013-02-18 21:42:00,42.9,23.6,30.03,WNW,294,0.0,12.0,46,0.00,,,0.00,VWS V14.01,2013-02-19 02:42:00,
2013-02-18 21:47:00,42.5,22.7,30.02,West,266,2.0,12.0,45,0.00,,,0.00,VWS V14.01,2013-02-19 02:47:00,
2013-02-18 21:52:00,42.2,22.9,30.02,NNW,329,1.0,12.0,46,0.00,,,0.00,VWS V14.01,2013-02-19 02:52:00,
2013-02-18 21:57:00,42.5,22.7,30.02,NE,48,0.0,12.0,45,0.00,,,0.00,VWS V14.01,2013-02-19 02:57:00,
2013-02-18 22:03:00,42.2,23.4,30.01,West,271,1.0,12.0,47,0.00,,,0.00,VWS V14.01,2013-02-19 03:03:00,
2013-02-18 22:08:00,42.2,22.4,30.01,WNW,284,0.0,12.0,45,0.00,,,0.00,VWS V14.01,2013-02-19 03:08:00,
2013-02-18 22:13:00,42.5,22.1,30.01,NNW,348,0.0,12.0,44,0.00,,,0.00,VWS V14.01,2013-02-19 03:13:00,
2013-02-18 22:19:00,42.3,22.0,29.98,NW,316,0.0,12.0,44,0.00,,,0.00,VWS V14.01,2013-02-19 03:19:00,
2013-02-18 22:24:00,42.1,22.3,29.98,NNE,20,0.0,12.0,45,0.00,,,0.00,VWS V14.01,2013-02-19 03:24:00,
2013-02-18 22:29:00,42.2,21.9,29.98,West,273,3.0,12.0,44,0.00,,,0.00,VWS V14.01,2013-02-19 03:29:00,
2013-02-18 22:34:00,42.2,22.9,29.98,NNW,338,0.0,12.0,46,0.00,,,0.00,VWS V14.01,2013-02-19 03:34:00,
2013-02-18 22:40:00,42.2,22.9,29.98,WSW,248,0.0,12.0,46,0.00,,,0.00,VWS V14.01,2013-02-19 03:40:00,
2013-02-18 22:45:00,42.3,22.5,29.98,WNW,292,1.0,12.0,45,0.00,,,0.00,VWS V14.01,2013-02-19 03:45:00,
2013-02-18 22:50:00,42.2,22.4,29.98,WNW,292,1.0,12.0,45,0.00,,,0.00,VWS V14.01,2013-02-19 03:50:00,
2013-02-18 22:55:00,41.9,22.6,29.98,NNW,347,0.0,12.0,46,0.00,,,0.00,VWS V14.01,2013-02-19 03:55:00,
2013-02-18 23:00:00,40.9,23.2,29.98,NNW,347,0.0,12.0,49,0.00,,,0.00,VWS V14.01,2013-02-19 04:00:00,
2013-02-18 23:06:00,40.1,22.5,29.98,NNW,347,0.0,12.0,49,0.00,,,0.00,VWS V14.01,2013-02-19 04:06:00,
2013-02-18 23:11:00,39.6,23.0,29.98,NNW,347,0.0,12.0,51,0.00,,,0.00,VWS V14.01,2013-02-19 04:11:00,
2013-02-18 23:16:00,39.6,23.0,29.96,NNW,347,0.0,12.0,51,0.00,,,0.00,VWS V14.01,2013-02-19 04:16:00,
2013-02-18 23:21:00,39.8,23.6,29.96,SW,236,0.0,12.0,52,0.00,,,0.00,VWS V14.01,2013-02-19 04:21:00,
2013-02-18 23:27:00,39.8,24.1,29.96,SW,236,0.0,12.0,53,0.00,,,0.00,VWS V14.01,2013-02-19 04:27:00,
2013-02-18 23:32:00,39.6,23.4,29.95,SW,222,1.0,12.0,52,0.00,,,0.00,VWS V14.01,2013-02-19 04:32:00,
2013-02-18 23:37:00,39.3,23.6,29.95,SW,222,0.0,12.0,53,0.00,,,0.00,VWS V14.01,2013-02-19 04:37:00,
2013-02-18 23:42:00,39.2,23.5,29.95,East,84,0.0,12.0,53,0.00,,,0.00,VWS V14.01,2013-02-19 04:42:00,
2013-02-18 23:47:00,39.1,23.9,29.95,East,84,0.0,12.0,54,0.00,,,0.00,VWS V14.01,2013-02-19 04:47:00,
2013-02-18 23:52:00,39.2,24.0,29.95,SSE,152,0.0,12.0,54,0.00,,,0.00,VWS V14.01,2013-02-19 04:52:00,
2013-02-18 23:57:00,39.2,23.5,29.95,SSE,152,0.0,12.0,53,0.00,,,0.00,VWS V14.01,2013-02-19 04:57:00,